Hourly Data Report for September 11, 2017

All times are specified in Local Standard Time (LST). Add 1 hour to adjust for Daylight Saving Time where and when it is observed.

CORAL HARBOUR A
NUNAVUT

64°11'36.000" N
83°21'34.000" W
62.20 m
2301002
71915
YZS

Download Data

Hourly Data (September 2017)
Hourly Data Report for September 11, 2017
Temp Definition
°C
Dew Point Temp Definition
°C
Rel Hum Definition
%
Wind Dir Definition
10's deg

Wind Spd Definition
km/h
Visibility Definition
km
Stn Press Definition
kPa
Hmdx Definition


Wind Chill Definition


Weather Definition


TIME
00:00 Legend Double Dagger -0.2 -1.0 94 8 20 24.1 100.80   -5 LegendNANA
01:00 Legend Double Dagger 0.0 -0.8 94 9 25 24.1 100.75   -6 Cloudy
02:00 Legend Double Dagger 0.2 -0.8 93 9 26 24.1 100.56     LegendNANA
03:00 Legend Double Dagger 0.2 -0.7 93 9 23 24.1 100.43     LegendNANA
04:00 Legend Double Dagger 0.5 -0.8 91 10 19 24.1 100.38     Cloudy
05:00 Legend Double Dagger 0.9 -0.6 90 9 27 24.1 100.22     LegendNANA
06:00 Legend Double Dagger 1.3 -0.6 87 9 28 24.1 100.12     LegendNANA
07:00 Legend Double Dagger 1.7 -1.7 78 10 30 24.1 100.05     Cloudy
08:00 Legend Double Dagger 1.9 -2.4 74 9 28 24.1 100.00     LegendNANA
09:00 Legend Double Dagger 2.3 -2.0 73 9 36 24.1 99.87     LegendNANA
10:00 Legend Double Dagger 3.3 -1.6 70 9 39 24.1 99.71     Cloudy
11:00 Legend Double Dagger 2.2 -0.5 83 9 37 12.9 99.64     Snow
12:00 Legend Double Dagger 1.2 -0.1 91 7 34 3.2 99.51     Snow
13:00 Legend Double Dagger 1.5 0.2 91 7 43 19.3 99.34     Ice Pellets
14:00 Legend Double Dagger 1.4 0.1 91 7 45 9.7 99.25     Rain,Ice Pellets
15:00 Legend Double Dagger 1.4 0.1 91 7 45 6.4 99.14     Rain,Snow
16:00 Legend Double Dagger 1.4 0.5 94 8 46 24.1 99.04     Rain
17:00 Legend Double Dagger 1.2 0.2 93 7 48 9.7 98.88     Rain
18:00 Legend Double Dagger 1.4 0.5 94 7 53 9.7 98.77     Rain
19:00 Legend Double Dagger 1.6 0.4 91 9 74 9.7 98.72     Rain
20:00 Legend Double Dagger 1.6 0.5 93 5 84 9.7 98.69     Rain
21:00 Legend Double Dagger 1.8 0.5 91 9 84 9.7 98.64     Rain
22:00 Legend Double Dagger 1.8 0.6 92 5 93 9.7 98.52     Rain
23:00 Legend Double Dagger 1.8 0.3 90 5 64 9.7 98.49     Rain

Notes on Data Quality.

Legend

  • E = Estimated
  • M = Missing
  • NA = Not Available
  • ‡ = Partner data that is not subject to review by the National Climate Archives
Date modified: